Home > Time Zones > World Clock > Weather > India > Buxar > Past weeks

Flag for India Weather past 2 weeks in Buxar, Bihar, India

Now
72 °F

Haze.


Feels Like: 69 °F
Forecast: 59 / 88 °F
Wind: No wind

Location: Varanasi / Babatpur

Current Time: Oct 22, 2014 at 6:01:57 AM

Latest Report: Oct 22, 2014 at 5:00 AM


Visibility: 1 mi

Pressure: 29.98 "Hg

Humidity: 88%

Dew point: 68 °F

Location of BuxarLocation

Historic Weather in Buxar — Graph

°F

Buxar temperature yesterday

Maximum temperature yesterday: 88 °F (at 1:00 PM)
Minimum temperature yesterday: 68 °F (at 5:00 AM)
Average temperature yesterday: 80 °F

Past Weeks' High & Low Weather Summary

 TemperatureHumidityPressure
High95 °F (Oct 8, 2:00 PM)100% (Oct 12, 6:00 AM)30.04 "Hg (Oct 12, 6:00 AM)
Low66 °F (Oct 20, 5:00 AM)46% (Oct 19, 12:00 PM)29.62 "Hg (Oct 14, 5:00 AM)
Average80 °F76%29.86 "Hg
* Reported Oct 7 9:00 AM — Oct 22 4:00 AM, Buxar, Weather by CustomWeather, © 2014

Note: Actual official high and low records may vary slightly from our data, if they occured in-between our weather recording intervals... More about our weather records

Advertising

Buxar weather history for previous 24 hours

 ConditionsComfort  
Time TempWeatherWind HumidityBarometerVisibility
4:00 AM
Oct 22
72 °FHaze.No wind88%29.98 "Hg1 mi
12:00 AM73 °FHaze.No wind94%30.01 "Hg2 mi
11:00 PM
Oct 21
75 °FHaze.No wind83%30.01 "Hg2 mi
10:00 PM77 °FHaze.No wind79%30.01 "Hg2 mi
8:00 PM79 °FHaze.No wind79%29.98 "Hg2 mi
7:00 PM81 °FHaze.No wind74%29.95 "Hg2 mi
6:00 PM81 °FHaze.No wind74%29.92 "Hg2 mi
5:00 PM86 °FClear.No wind55%29.92 "Hg3 mi
4:00 PM86 °FHaze.No wind52%29.92 "Hg3 mi
3:00 PM86 °FHaze.5 mph49%29.92 "Hg3 mi
2:00 PM88 °FHaze.2 mph46%29.95 "Hg3 mi
1:00 PM88 °FHaze.2 mph52%29.98 "Hg2 mi
12:00 PM86 °FHaze.No wind52%30.01 "Hg2 mi
11:00 AM82 °FHaze.No wind58%30.01 "Hg2 mi
10:00 AM81 °FHaze.No wind66%30.04 "Hg2 mi
9:00 AM79 °FHaze.No wind74%30.04 "Hg2 mi
7:00 AM70 °FFog.No wind83%29.98 "Hg1 mi
Weather by CustomWeather, © 2014

See weather overviewHow to use our weather pages